Regional Weather Roundup
Issued by NWS

Home | Current Version | Previous Version | Text Only | Print | Product List | Glossary On
Versions: 1 2 3 4 5 6 7 8 9 10 11 12 13 14 15 16 17 18 19 20 21 22 23 24 25 26 27 28 29 30 31 32 33 34 35 36 37 38 39 40 41 42 43 44 45 46 47 48 49 50
000
ASUS43 KDTX 171401
RWRMI
MICHIGAN HOURLY REGIONAL WEATHER ROUNDUP
NATIONAL WEATHER SERVICE DETROIT/PONTIAC MI
1000 AM EDT TUE OCT 17 2017

NOTE: "FAIR" INDICATES FEW OR NO CLOUDS BELOW 12,000 FEET WITH NO
SIGNIFICANT WEATHER AND/OR OBSTRUCTION TO VISIBILITY.

MIZ047>049-052>055-059>063-066>070-074>076-081>083-171500-
SOUTHEAST LOWER MICHIGAN

CITY           SKY/WX    TMP DP  RH WIND       PRES   REMARKS
ADRIAN         SUNNY     48  40  73 SW9       30.26S
ALMA           SUNNY     51  41  69 SW12G18   30.14S
ANN ARBOR      SUNNY     49  41  74 S9        30.22F
BAD AXE        SUNNY     52  40  62 SW13      30.12F
CARO           SUNNY     53  39  59 S10       30.13S
DETROIT CITY   SUNNY     52  39  61 SW13      30.23S
DETROIT        MOSUNNY   51  41  68 SW12      30.24F
FLINT          SUNNY     53  38  56 SW16G23   30.17F
GROSSE ILE     SUNNY     52  40  64 W10G16    30.24S
HILLSDALE      SUNNY     50  37  62 SW8       30.23S
HOWELL         SUNNY     52  40  64 SW9       30.19F

CITY           SKY/WX    TMP DP  RH WIND       PRES   REMARKS
JACKSON        SUNNY     51  39  63 SW14      30.21S
LAMBERTVILLE   SUNNY     54  39  57 SW6       30.26F
LANSING        SUNNY     53  37  54 SW16G23   30.18S
LAPEER         FAIR      53  39  59 SW10      30.17F
MASON          SUNNY     53  39  60 SW9G17    30.19S
MONROE         SUNNY     53  39  61 SW9       30.25S
PONTIAC        MOSUNNY   51  40  65 SW8       30.19F
PORT HOPE        N/A     54  40  59 SW10G22   30.07F
PORT HURON     SUNNY     52  41  66 S8        30.20F
TRI CITIES     SUNNY     54  42  64 SW18      30.12F
MIDLAND        FAIR      53  44  70 SW8       30.10S
TROY           SUNNY     48  40  72 SW9       30.23F
SAGINAW HB     SUNNY     52  41  66 SW18      30.12S
$$
MIZ043>046-050>051-056>058-064>065-071>073-077>080-171500-
SOUTHWEST LOWER MICHIGAN

CITY           SKY/WX    TMP DP  RH WIND       PRES   REMARKS
BATTLE CREEK   SUNNY     52  40  63 SW15      30.21S
BENTON HARBOR  SUNNY     52  39  61 S8        30.21R
BIG RAPIDS     SUNNY     55  45  67 SW12G20   30.09S
COLDWATER      SUNNY     52  39  61 SW9G20    30.24R
FREMONT        FAIR      58  50  74 SW14      30.10F
HOLLAND        SUNNY     57  48  72 SW17G24   30.16S
GRAND RAPIDS   MOSUNNY   54  42  64 SW12G21   30.15S
IONIA          FAIR      56  38  52 SW13G21   30.15S
KALAMAZOO      SUNNY     51  40  65 SW9       30.22S
LUDINGTON      SUNNY     59  47  64 SW12G20   30.07R
MARSHALL       SUNNY     51  39  64 SW8       30.21S
MOUNT PLEASANT SUNNY     56  44  64 SW15G22   30.09S
MUSKEGON       MOSUNNY   63  49  60 SW16G24   30.13R
SOUTH HAVEN    SUNNY     55  40  58 SW13G21   30.19S
$$
MIZ016>042-171500-
NORTHERN LOWER MICHIGAN

CITY           SKY/WX    TMP DP  RH WIND       PRES   REMARKS
ALPENA         SUNNY     56  43  61 SW12G22   30.00S
BEAVER ISLAND  SUNNY     58  45  61 W15       29.98R
BELLAIRE       SUNNY     55  45  68 SW8       30.02S
CADILLAC       SUNNY     56  45  65 SW14G21   30.05S
CHARLEVOIX     SUNNY     58  48  67 SW10G21   30.02R
FRANKFORT      CLOUDY    60  46  61 W9G16     30.04R
GAYLORD        SUNNY     53  42  66 SW16      30.01S
GRAYLING       SUNNY     53  42  67 SW9       30.03F
HARBOR SPRINGS MOSUNNY   56  47  70 SW9G17    29.99R
HOUGHTON LAKE  SUNNY     53  44  71 SW15G22   30.06S
MANISTEE       SUNNY     58  47  66 SW8       30.05S
OSCODA         SUNNY     51  42  71 SW15G21   30.05S
PELLSTON       SUNNY     57  47  69 SW12      29.98R
ROGERS CITY    SUNNY     55  43  63 SW14G23   29.98S
TRAVERSE CITY  CLOUDY    56  45  66 SW6       30.02R
$$
MIZ007>008-015-171500-
EASTERN UPPER MICHIGAN

CITY           SKY/WX    TMP DP  RH WIND       PRES   REMARKS
KINROSS        SUNNY     56  43  61 W8        29.93S
MACKINAC ISLAN SUNNY     59  44  58 W16G24    29.96R
NEWBERRY       PTSUNNY   50  41  70 SW7       29.93S
S. S. MARIE    SUNNY     55  43  63 SW10G18   29.91S
MUNISING         N/A     51  41  68 S6        29.93R
$$
MIZ004>006-011>014-085-171500-
CENTRAL UPPER MICHIGAN

CITY           SKY/WX    TMP DP  RH WIND       PRES   REMARKS
MANISTIQUE     MOSUNNY   52  33  47 W10G18    29.95S
ESCANABA       MOSUNNY   48  39  71 W7        29.97R
MENOMINEE      MOSUNNY   49  40  71 W8        30.01R
SAWYER-GWINN   SUNNY     48  39  71 W8        29.95R
$$
MIZ001>003-009>011-084-171500-
WESTERN UPPER MICHIGAN

CITY           SKY/WX    TMP DP  RH WIND       PRES   REMARKS
IRON MOUNTAIN  SUNNY     50  37  61 W7        29.99R
HOUGHTON       MOSUNNY   52  43  71 W14       29.93R
COPPER HARBOR    N/A     55  43  63 CALM      29.91R
IRONWOOD       MOSUNNY   51  39  63 SW7       29.98S
$$

ABBREVIATIONS USED IN REMARKS
   TC - TEMPERATURE IN CELSIUS
  WCI - WIND CHILL INDEX
   HX - HEAT INDEX
  VSB - VISIBILITY





USA.gov is the U.S. government's official web portal to all federal, state and local government web resources and services.